Race Coverage Navigation

TS # 18 / Alamosa, CO  2019

 


TS STATS
TS Distance 46.59 
Total Distance 1077.28 
Miles To Go 1993 
TS Climbing 1028 
Total Climbing
TS  Elevation
TS  Net Elevation 1619 
Map Filename Open Map 
Directions Filename  
Latitude 37.47 
Longitude -105.86 
Google Map  TimeStation Map 


TS Arrival Data
Arr Ord  #/Name Arrival DT TS Dst Avg This TS Avg Overall
 1 377 - Christoph Strasser  06/14/2019 4:51 46.59  19.83  17.9 
 2 279 - Marko Baloh  06/14/2019 15:38 46.59  18.27  15.17 
 3 288 - Dave Haase  06/14/2019 18:41 46.59  19.41  14.54 
 4 609 - Jakob Olsen  06/14/2019 19:18 46.59  11.55  14.37 
 5 617 - SOLO.kiwi (Craig Harper)  06/14/2019 20:07 46.59  21.34  14.2 
 6 529 - Isa Pulver  06/14/2019 20:12 46.59  18.03  14.15 
 7 349 - Mark Pattinson  06/14/2019 20:37 46.59  15.62  14.17 
 8 612 - Markus K. Brandl  06/14/2019 23:32 46.59  16.16  13.6 
 9 329 - Peter Oyler  06/15/2019 3:39 46.59  8.37  12.97 
 10 622 - Thomas Odom-Team Kyle Pease Foundation  06/15/2019 4:27 46.59  14.41  12.78 
 11 416 - Leah Goldstein  06/15/2019 6:46 46.59  15.03  12.43 
 12 442 - Joe Barr  06/15/2019 7:37 46.59  8.25  12.37 
 13 623 - Ultra Paka Racing Team (Daniel Polman)  06/15/2019 7:39 46.59  7.08  12.31 
 14 615 - Philipp Amhof  06/15/2019 8:20 46.59  17.69  12.23 
 15 603 - Alan Bradley  06/15/2019 8:56 46.59  10.28  12.17 
 16 568 - Alexandra Meixner  06/15/2019 10:23 46.59  18.76  11.93 
 17 367 - Daniela Genovesi  06/15/2019 10:56 46.59  17.92  11.86 
 18 604 - Chieko Ozawa  06/15/2019 12:13 46.59  11.5  11.69 
 19 559 - Team Martin RAAM 2019 (Martin Bergmeister)  06/15/2019 14:09 46.59  17.26  11.5 
 20 411 - Geoff Brunner  06/15/2019 14:44 46.59  16.74  11.44 
 21 611 - Marcelo Soares " MIXIRICA "  06/15/2019 16:11 46.59  13.7  11.24 
 22 610 - Kabir Rachure  06/15/2019 16:35 46.59  15.11  11.19 
 23 510 - John C. Tarlton  06/15/2019 19:03 46.59  6.66  10.93 
 24 539 - Kari Rouvinen  06/15/2019 19:47 46.59  14.41  10.85 
 25 399 - Valerio Zamboni  06/15/2019 22:17 46.59  10.06  10.59 
 26 424 - Team i RON man Veterans supporting Veterans  06/16/2019 0:13 46.59  11.27  10.39 
 27 608 - Elin Starup  06/16/2019 3:06 46.59  7.19  10.06 
 28 527 - TALABARDON (Herve Talabardon)  06/16/2019 5:32 46.59  6.9  9.88 
 29 618 - GREGORY ROBINSON  06/16/2019 8:36 46.59  4.37  9.59 
 30 607 - Sabine Bird (Team Bean)  06/16/2019 10:22 46.59  6.7  9.42 
 31 605 - Christian Echavarria  06/16/2019 12:04 46.59  11.18  9.31 
 32 161 - Seana Hogan  06/16/2019 15:55 46.59  1.64  8.99 
 33 T411 - team alpha - tischlerei groemmer  06/17/2019 15:54 46.59  23.1  22.19 
 34 T800 - Backstedt Racing Project 14  06/17/2019 16:29 46.59  24.74  21.99 
 35 T401 - Data Techniques powered by Networks Centre  06/17/2019 17:48 46.59  26.62  21.28 
 36 T404 - Gentlemen of speed  06/17/2019 18:43 46.59  25.18  20.92 
 37 T201 - EAT WELL  06/17/2019 21:04 46.59  23.1  19.93 
 38 T407 - Julian Becker   06/17/2019 22:43 46.59  20.4  19.43 
 39 T805 - Team Oceanside  06/17/2019 22:44 46.59  18.76  19.53 
 40 T807 - Team ZOE International  06/17/2019 23:04 46.59  21.67  19.42 
 41 T412 - Team Aspect  06/17/2019 23:46 46.59  19.02  19.1 
 42 T802 - Scorchers  06/18/2019 0:45 46.59  16.44  18.82 
 43 T416 - Team Rotary Raams Polio  06/18/2019 0:50 46.59  22.01  18.77 
 44 T408 - Radeln-fuer-Kinder (Cycling-for-Kids)  06/18/2019 1:25 46.59  21.5  18.54 
 45 T804 - Team FSHD Skyland Trail  06/18/2019 1:45 46.59  22.91  18.51 
 46 T400 - Cantastic4  06/18/2019 1:52 46.59  19.83  18.35 
 47 T808 - Antonia's Friends 2019  06/18/2019 1:54 46.59  19.97  18.48 
 48 T406 - Operation Walk Midwest  06/18/2019 2:03 46.59  20.71  18.33 
 49 T418 - The Opportunists  06/18/2019 3:53 46.59  19.97  17.83 
 50 T202 - Integra Medical - BAA Racing  06/18/2019 6:07 46.59  19.15  17.08 
 51 T410 - Soap-Aid  06/18/2019 6:07 46.59  22.01  17.16 
 52 T403 - EKJ Denmark  06/18/2019 6:10 46.59  19.02  17.11 
 53 T414 - Brazil Nuts  06/18/2019 6:16 46.59  17.15  17.14 
 54 T803 - Team EndoPark  06/18/2019 6:55 46.59  20.26  17 
 55 T405 - High Rollers  06/18/2019 7:35 46.59  18.27  16.75 
 56 T206 - Project Linear Acceleration  06/18/2019 8:08 46.59  16.64  16.57 
 57 T415 - TEAM FIRE VELO 935  06/18/2019 8:45 46.59  15.7  16.49 
 58 T204 - Lucan CRC  06/18/2019 9:18 46.59  18.64  16.26 
 59 T413 - TEAM BRASIL - SKIPPER  06/18/2019 11:05 46.59  17.69  15.91 
 60 T402 - EA/WFP RAAM Team  06/18/2019 11:41 46.59  19.41  15.73 
 61 T806 - Team SuperMarrow  06/18/2019 12:38 46.59  21.67  15.6 
 62 T801 - Mind Over Matter  06/18/2019 13:23 46.59  16.54  15.42 
 63 T417 - Team4RAAM 2019 powered by TGW Living Logistics  06/18/2019 14:53 46.59  18.27  15.08 
 64 T208 - Team Machine  06/18/2019 15:19 46.59  18.15  14.92 
 65 T200 - AIR RELAX GoPro TEAM BRASIL  06/18/2019 16:39 46.59  24.1  14.63 
 66 T207 - Team Life Time  06/18/2019 16:45 46.59  21.5  14.63 
 67 T409 - Serpentine Golden Girls  06/18/2019 19:06 46.59  20.55  14.22 
 68 T203 - JPsDuo  06/18/2019 21:07 46.59  19.97  13.8 
 69 T210 - Bike Wine Team  06/19/2019 1:03 46.59  16.94  13.15 
 70 T205 - Prevent Breast Cancer powered by Endomag  06/19/2019 1:25 46.59  5.64  13.08